Weather in Valletta

Malta     35°53′52″N   14°30′47″E
temp.,
°C
wind,
m/s
gust,
m/s
humid.,
%
clouds,
%
prec.,
mm/h
press.,
hPa
HPBL,
m
26 february, fri
fri2601:00+14ne67810 0.0 1029593
04:00+14ene457852 0.0 1028676
07:00+14ene458043 0.0 1028648
10:00+14e337694 0.0 1029640
13:00+14ene337191 0.0 1027711
16:00+14ne227410 0.0 1026397
19:00+14nne22765 0.0 1026314
22:00+13n11770 0.0 1026298
27 february, sat
sat2701:00+13nw22780 0.0 1025291
04:00+13nw22760 0.0 1024317
07:00+13w34780 0.0 1023328
10:00+15w45740 0.0 1024478
13:00+15wnw66730 0.0 1023509
16:00+15wnw56710 0.0 1022469
19:00+14wnw56740 0.0 1022379
22:00+14wnw56750 0.0 1023402
28 february, sun
sun2801:00+14wnw45750 0.0 1022340
04:00+14wnw45770 0.0 1021350
07:00+14wnw33760 0.0 1021370
10:00+15w11720 0.0 1023416
13:00+15ene33720 0.0 1023611
16:00+15e447612 0.0 1022686
19:00+14e668311 0.1 1023543
22:00+14e67831 0.0 1025560
1 march, mon
mon101:00+14e67801 0.0 1025608
04:00+14e67782 0.0 1025763
07:00+14e78781 0.0 1026747
10:00+14e78721 0.0 1027756
13:00+14e77760 0.0 1027736
16:00+14e77760 0.0 1027754
19:00+14e67750 0.0 1028630
22:00+14ene78770 0.0 1029646
2 march, tue
tue201:00+14ene79760 0.0 1029761
04:00+14ene810750 0.0 1028890
07:00+14ene1011740 0.0 1029937
10:00+14ene911715 0.0 1031946
13:00+14ene910723 0.0 1031880
16:00+14ene910750 0.0 1030829
19:00+14ene911776 0.0 1030789
22:00+14ene897545 0.0 1032770